Regional Weather Roundup
Issued by NWS Sioux Falls, SD

Home | Current Version | Previous Version | Graphics & Text | Print | Product List | Glossary On
Versions: 1 2 3 4 5 6 7 8 9 10 11 12 13 14 15 16 17 18 19 20 21 22 23 24 25 26 27 28 29 30 31 32 33 34 35 36 37 38 39 40 41 42 43 44 45 46 47 48 49 50
000
ASUS43 KFSD 010710
RWRFSD

WEATHER ROUNDUP FOR SE SOUTH DAKOTA/SW MINNESOTA/NW IOWA
NATIONAL WEATHER SERVICE SIOUX FALLS SD
200 AM CDT MON SEP 01 2014

NOTE: "FAIR" INDICATES FEW OR NO CLOUDS BELOW 12,000 FEET WITH NO
SIGNIFICANT WEATHER AND OR OBSTRUCTIONS TO VISIBILITY.


SDZ038>040-050-052>070-010800-
SOUTHEAST SOUTH DAKOTA

CITY           SKY/WX    TMP DP  RH WIND       PRES   REMARKS
CHAMBERLAIN    CLOUDY    61  59  93 W7        29.76F
HURON          CLOUDY    61  60  97 S3        29.72R
MADISON        LGT RAIN  59  59 100 NW3       29.72S
MITCHELL       CLOUDY    65  62  90 NW9       29.71F
SIOUX FALLS    CLOUDY    63  61  93 NW5       29.70S
WINNER         FAIR      59  57  93 W9        29.79S
YANKTON        MOCLDY    63  61  94 NW9       29.72R
$$

MNZ071-072-080-081-089-090-097-098-010800-
SOUTHWEST MINNESOTA

CITY           SKY/WX    TMP DP  RH WIND       PRES   REMARKS
FAIRMONT       CLOUDY    63  59  88 S8        29.68R
JACKSON        CLOUDY    64  63  94 SE6       29.68S
LUVERNE        MOCLDY    63  61  94 N5        29.70R
MARSHALL       MOCLDY    64  59  82 NW5       29.66R
MONTEVIDEO     CLOUDY    64  63  94 NW5       29.67S
PIPESTONE      CLOUDY    63  61  94 CALM      29.71R
REDWOOD FALLS  CLOUDY    66  66 100 NW3       29.65F
TRACY          MOCLDY    65  64  96 CALM      29.68S THUNDER
WINDOM         CLOUDY    64  63  94 CALM      29.67S
WORTHINGTON    MOCLDY    63  63 100 NW3       29.68F
$$

IAZ001>003-012>014-020>022-031-032-NEZ013-014-SDZ071-010800-
NORTHWEST IOWA

CITY           SKY/WX    TMP DP  RH WIND       PRES   REMARKS
CHEROKEE       CLOUDY    62  62 100 CALM      29.70R
DENISON        CLOUDY    66  66 100 VRB3      29.69S
ESTHERVILLE    CLOUDY    63  62  97 S7        29.68S
LE MARS        FOG       64  64 100 S3        29.70R VSB 1/4
ORANGE CITY    MOCLDY    66  64  94 NW7       29.69S FOG
SHELDON        CLOUDY    63  63 100 CALM      29.68S FOG
SIOUX CITY     MOCLDY    63  62  97 CALM      29.70R
SPENCER        CLOUDY    64  62  93 S6        29.69R
STORM LAKE     CLOUDY    63  63 100 S7        29.71R
$$

ABBREVIATIONS USED IN REMARKS
   TC - TEMPERATURE IN CELSIUS
  WCI - WIND CHILL INDEX
   HX - HEAT INDEX
  VSB - VISIBILITY




USA.gov is the U.S. government's official web portal to all federal, state and local government web resources and services.